Location: Unspecified
(48.1170°N, 0.0000°E)
Time: 11:35:27
(UTC+00:00)

NOAA 15 - Visible Passes

Search period start: 21 October 2019 00:00
Search period end: 31 October 2019 00:00
Orbit: 798 x 812 km, 98.7° (Epoch: 20 October)

Date Brightness Start Highest point End Pass type
(mag) Time Alt. Az. Time Alt. Az. Time Alt. Az.
21 Oct 4.7 17:53:19 10° SSE 17:58:30 57° ENE 18:03:43 10° N visible
21 Oct 6.9 19:34:28 10° SW 19:38:37 23° W 19:42:49 10° NW visible
22 Oct 5.2 17:28:44 10° SE 17:33:33 37° ENE 17:38:24 10° N visible
22 Oct 6.1 19:08:27 10° SSW 19:13:19 36° W 19:18:15 10° NNW visible
23 Oct 5.2 18:42:53 10° S 18:48:07 58° WSW 18:53:24 10° NNW visible
24 Oct 4.6 18:17:41 10° SSE 18:23:00 88° ENE 18:28:22 10° NNW visible
24 Oct 7.5 20:00:41 10° WSW 20:03:30 14° W 20:06:21 10° NW visible
25 Oct 4.7 17:52:48 10° SE 17:57:59 56° ENE 18:03:12 10° N visible
25 Oct 6.9 19:33:55 10° SW 19:38:06 23° W 19:42:19 10° NW visible
26 Oct 5.2 17:28:15 10° SE 17:33:04 36° ENE 17:37:54 10° N visible
26 Oct 6.1 19:07:55 10° SSW 19:12:48 37° W 19:17:44 10° NNW visible
27 Oct 5.2 18:42:22 10° S 18:47:37 59° WSW 18:52:53 10° NNW visible
28 Oct 4.6 18:17:11 10° SSE 18:22:30 87° ENE 18:27:52 10° NNW visible
28 Oct 7.5 20:00:07 10° WSW 20:02:59 15° W 20:05:53 10° NW visible
29 Oct 4.7 17:52:18 10° SE 17:57:29 56° ENE 18:02:41 10° N visible
29 Oct 6.8 19:33:23 10° SW 19:37:35 24° W 19:41:50 10° NW visible
30 Oct 7.7 06:05:01 10° NE 06:08:05 15° E 06:11:09 10° SE visible
30 Oct 5.2 17:27:45 10° SE 17:32:33 36° ENE 17:37:22 10° N visible
30 Oct 6.0 19:07:24 10° SSW 19:12:18 37° W 19:17:14 10° NNW visible
